Location: Cheyres
(46.8153°N, 6.7877°E)
Time: 13:29:28
(UTC+00:00)

FENGYUN 1C DEB - Pass Details

Date: 05 December 2021
Orbit: 843 x 915 km, 99.0° (Epoch: 18 January)

Event Time Altitude Azimuth Distance (km) Brightness Sun altitude
Exits shadow 18:24:35 23° 5° (N) 1,761 ? -26.4°
Drops below altitude 10° 18:26:39 10° 355° (N) 2,493 ? -26.8°
Sets 18:29:04 0° 350° (N) 3,427 ? -27.2°
